Showing default

SAOCOM 1-B, 46265

Orbit data source: Space-Track

SAOCOM 1-B, 46265 is a payload satellite owned by CONAE Tabanera (AR) in SSO that was launched on Sun, 30 Aug 2020 UTC via an FALCON 9 launch vehicle from the Air Force Eastern Test Range (AFETR). Payloads include a variety of satellites, spacecraft, and rockets equipped with specific instruments for various scientific and technological missions. These include communications satellites like Starlink; space stations such as the ISS; scientific satellites like the Hubble; Earth observation satellites from companies like Planet Labs, Umbra, and HawkEye 360; GPS; miniature CubeSats for education and research; and military/defense satellites.

Loading next visibility...
SAOCOM 1-B details
Identifier
46265, 2020-059A
Orbit
SSO
Last TLE update10 hours ago
Origin
Flag of ARCONAE Tabanera (AR / ARGN)
ManufacturerINVAP
MissionOperational Civil Radar Imaging
Bus & MotorSAOCOM, Unknown motor
Mass3,050 kg wet, ~2,700 kg dry
Launch date (UTC)
2020-08-30 (4 years ago)
Launch vehicle
FALCON 9
Launch site
Air Force Eastern Test Range (AFETR)
Object type
Payload
Rocket body
Debris
Shape & HBRCyl + 2 Pan, Unknown HBR
Radar Cross Section19.776 m², Large (>1 m²)

Expand to show TLE details & history

TLE from 10 hours ago
0 SAOCOM 1-B
1 46265U 20059A   24361.51328865  .00001381  00000-0  17990-3 0  9995
2 46265  97.8849 184.0733 0001275  89.8238 270.3121 14.82169775233845
Epoch: 2024-12-26T12:19Z
Definitive object data (Epoch: 2024-12-26T12:19:08.139Z)
Latitude-0.00004°
Longitude-96.20221°
Altitude625.504 km
Speed7.546 km/s
True Right ascension12h 16m 17s
True Declination0° 00' 00"
Sunlit
Object was in daylight at TLE epoch
Visualization TLE readout
Latitude73.06944°
Longitude111.12009°
Altitude634.183 km
Speed7.548 km/s
Apparent Right ascension08h 15m 11s
Apparent Declination30° 55' 39"
Sunlit
Object is in full shadow
Visualization observer readout
Local Sidereal Time21:53:56
Azimuth21.832° NNE
Elevation-15.546°
Doppler factor1
Orbital elements
Apogee altitude620.413 km
Perigee altitude618.629 km
Semi-major axis6,997.658 km
Eccentricity0.0001275
Inclination97.8849°
RAAN184.0733°
Arg. of periapsis89.8238°
True anomaly270.29749°
Mean anomaly270.3121°
Eccentric anomaly270.30479°
Mean motion3.70778 °/min
BSTAR0.0001799
Orbital period97.09 mins
Loading maneuver chart data...
Loading historical data...
Loading historical data...
Loading historical data...
Loading historical data...
Loading historical data...
Loading historical data...
Loading historical data...
Other satellites on launch #59 in the year 2020 (2020-08-30 UTC)

SAOCOM 1-B Visibility forecast

Observer location: undefined°, undefined

Span
Click to sort rows by Start time (UTC) header in descending order
Start Az.
Max El. time (UTC)
Max El. Az.
Max El.
End time (UTC)
End Az.
4 mins2024-12-27 00:15:45.994Z61.044° ENE2024-12-27 00:17:45.994Z93.104° ESE16.798°2024-12-27 00:19:45.994Z125.217° SE
6 mins2024-12-27 01:51:45.994Z342.875° N2024-12-27 01:53:45.994Z298.386° NW31.35°2024-12-27 01:57:45.994Z222.208° SW
6 mins2024-12-27 12:45:45.994Z193.547° SSW2024-12-27 12:47:45.994Z246.297° WSW38.308°2024-12-27 12:51:45.994Z335.901° NNW
|